Regional Weather Roundup
Issued by NWS

Home | Current Version | Previous Version | Graphics & Text | Print | Product List | Glossary On
Versions: 1 2 3 4 5 6 7 8 9 10 11 12 13 14 15 16 17 18 19 20 21 22 23 24 25 26 27 28 29 30 31 32 33 34 35 36 37 38 39 40 41 42 43 44 45 46 47 48 49 50
000
ASUS43 KBIS 220920
RWRND

NORTH DAKOTA REGIONAL WEATHER ROUNDUP
NATIONAL WEATHER SERVICE BISMARCK ND
300 AM CST MON DEC 22 2014

NOTE: "FAIR" INDICATES FEW OR NO CLOUDS BELOW 12,000 FEET WITH NO
SIGNIFICANT WEATHER AND/OR OBSTRUCTIONS TO VISIBILITY.


NDZ001>003-009>011-017-221000-
NORTHWEST NORTH DAKOTA

CITY           SKY/WX    TMP DP  RH WIND       PRES   REMARKS
WILLISTON      LGT RAIN  34  32  92 NW9       29.44R
MINOT          CLOUDY    28  26  92 SE8       29.44R FOG     WCI  20
MINOT AFB      FRZ DRZL  29  29 100 SE7       29.44R FOG
$$

NDZ018>021-031>035-040>046-221000-
SOUTHWEST NORTH DAKOTA

CITY           SKY/WX    TMP DP  RH WIND       PRES   REMARKS
BISMARCK       CLOUDY    28  28 100 SE5       29.45R FOG
DICKINSON      MIX PCPN  35  32  88 W18       29.40R
GARRISON         N/A     28  28 100 SE6       29.42R
HETTINGER ARPT CLOUDY    36  32  85 NW18      29.45R
$$

NDZ004>008-012>016-024-026-027-054-221000-
NORTHEAST NORTH DAKOTA

CITY           SKY/WX    TMP DP  RH WIND       PRES   REMARKS
GRAND FORKS    CLOUDY    34  33  96 SE7       29.53S
GRND FRKS AFB  CLOUDY    32  32 100 E3        29.53F FOG
DEVILS LAKE    CLOUDY    30  25  80 SE6       29.47S
$$

NDZ022-023-025-028>030-036>039-047>053-221000-
SOUTHEAST NORTH DAKOTA

CITY           SKY/WX    TMP DP  RH WIND       PRES   REMARKS
FARGO          CLOUDY    38  35  89 SE14      29.51F FOG
JAMESTOWN      CLOUDY    32  32 100 SE7       29.45S FOG
$$



USA.gov is the U.S. government's official web portal to all federal, state and local government web resources and services.